Weather History for Rochester, MN

Change the Weather History Date:

Saturday, June 29, 2013

  Actual Average Record
Temperature  
Mean Temperature 66 °F 71 °F  
Max Temperature 71 °F 81 °F 99 °F (1931)
Min Temperature 60 °F 61 °F 44 °F (1911)
Degree Days  
Heating Degree Days 0 0  
Month to date heating degree days 60 54  
Since 1 June heating degree days 60  
Since 1 July heating degree days 7825 7724  
Cooling Degree Days 1 6  
Month to date cooling degree days 125 122  
Year to date cooling degree days 155 156  
Since 1 June cooling degree days 125  
Growing Degree Days 16 (Base 50)    
Moisture  
Dew Point 59 °F    
Average Humidity 77    
Maximum Humidity 93    
Minimum Humidity 61    
Precipitation  
Precipitation 0.31 in 0.15 in 1.46 in (1963)
Month to date precipitation 6.86 4.52  
Year to date precipitation 30.76 14.96  
Snow  
Snow 0.00 in 0.00 in 0.00 in (2012)
Month to date snowfall 0.0 0.0  
Since 1 June snowfall 0.0  
Since 1 July snowfall 74.0 51.9  
Snow Depth 0.00 in    
Sea Level Pressure  
Sea Level Pressure 29.81 in    
Wind  
Wind Speed 12 mph (North)    
Max Wind Speed 26 mph    
Max Gust Speed 33 mph    
Visibility 9 miles    
Events Rain    
T = Trace of Precipitation, MM = Missing Value Source: NWS Daily Summary

Daily Weather History Graph

Daily Weather History Graph

Search for Another Location

Airport:

Trip Planner

Search our weather history database for the weather conditions in past years. The results will help you decide how hot, cold, wet, or windy it might be!

Date:

Astronomy

Jun. 29, 2013 Rise Set
Actual Time 5:30 AM CDT 8:56 PM CDT
Civil Twilight 4:54 AM CDT 9:32 PM CDT
Nautical Twilight 4:07 AM CDT 10:19 PM CDT
Astronomical Twilight 3:07 AM CDT 11:19 PM CDT
Moon 12:11 AM CDT (6/29) 12:58 PM CDT (6/29)
Length of Visible Light 16h 38m
Length of Day
15h 25m
Waning Gibbous, 55% of the Moon is Illuminated
Jun 29
Waning Gibbous
Jun 29
Last Quarter
Jul 8
New
Jul 15
First Quarter
Jul 22
Full

Hourly Weather History & Observations

Time (CDT) Temp. Dew Point Humidity Pressure Visibility Wind Dir Wind Speed Gust Speed Precip Events Conditions
12:12 AM 64.4 °F 60.8 °F 88% 29.77 in 10.0 mi NNW 11.5 mph - N/A   Scattered Clouds
12:19 AM 64.4 °F 62.6 °F 94% 29.77 in 10.0 mi NNW 12.7 mph - N/A   Mostly Cloudy
12:54 AM 64.0 °F 61.0 °F 90% 29.76 in 10.0 mi NNW 10.4 mph - N/A   Mostly Cloudy
1:01 AM 64.4 °F 60.8 °F 88% 29.77 in 10.0 mi NNW 10.4 mph - N/A   Scattered Clouds
1:18 AM 64.4 °F 60.8 °F 88% 29.77 in 10.0 mi NNW 11.5 mph - N/A   Mostly Cloudy
1:28 AM 64.4 °F 62.6 °F 94% 29.76 in 10.0 mi NNW 11.5 mph - N/A   Overcast
1:43 AM 64.4 °F 60.8 °F 88% 29.76 in 10.0 mi NNW 12.7 mph - N/A   Mostly Cloudy
1:54 AM 64.0 °F 61.0 °F 90% 29.75 in 10.0 mi NNW 11.5 mph - N/A   Mostly Cloudy
2:08 AM 64.4 °F 60.8 °F 88% 29.77 in 10.0 mi NNW 11.5 mph - N/A   Overcast
2:29 AM 64.4 °F 60.8 °F 88% 29.77 in 10.0 mi NNW 12.7 mph - N/A   Overcast
2:46 AM 64.4 °F 60.8 °F 88% 29.76 in 10.0 mi NNW 10.4 mph - N/A   Overcast
2:54 AM 64.0 °F 61.0 °F 90% 29.75 in 10.0 mi NNW 11.5 mph - N/A   Overcast
3:20 AM 64.4 °F 60.8 °F 88% 29.76 in 10.0 mi NNW 9.2 mph - N/A   Overcast
3:36 AM 64.4 °F 60.8 °F 88% 29.76 in 10.0 mi North 8.1 mph - N/A   Overcast
3:51 AM 64.4 °F 62.6 °F 94% 29.76 in 10.0 mi NNW 8.1 mph - N/A   Overcast
3:54 AM 64.0 °F 62.1 °F 93% 29.75 in 10.0 mi NNW 9.2 mph - N/A   Overcast
3:58 AM 64.4 °F 60.8 °F 88% 29.76 in 10.0 mi NNW 9.2 mph - N/A   Overcast
4:46 AM 62.6 °F 60.8 °F 94% 29.77 in 10.0 mi NNW 9.2 mph - N/A   Overcast
4:54 AM 63.0 °F 61.0 °F 93% 29.75 in 10.0 mi NNW 6.9 mph - N/A   Overcast
5:02 AM 62.6 °F 60.8 °F 94% 29.76 in 10.0 mi NNW 5.8 mph - N/A   Overcast
5:19 AM 62.6 °F 60.8 °F 94% 29.77 in 10.0 mi NW 4.6 mph - N/A   Overcast
5:39 AM 62.6 °F 60.8 °F 94% 29.77 in 10.0 mi NNW 5.8 mph - N/A   Overcast
5:46 AM 62.6 °F 60.8 °F 94% 29.77 in 10.0 mi North 6.9 mph - N/A   Overcast
5:54 AM 63.0 °F 61.0 °F 93% 29.75 in 10.0 mi North 5.8 mph - N/A   Overcast
6:10 AM 62.6 °F 60.8 °F 94% 29.78 in 4.0 mi North 9.2 mph - 0.02 in Rain Heavy Rain
6:13 AM 62.6 °F 60.8 °F 94% 29.78 in 1.8 mi North 9.2 mph - 0.03 in Rain Heavy Rain
6:29 AM 62.6 °F 60.8 °F 94% 29.78 in 1.5 mi North 11.5 mph - 0.15 in Rain Heavy Rain
6:54 AM 62.1 °F 60.1 °F 93% 29.77 in 5.0 mi NNE 6.9 mph - 0.24 in Rain Rain
7:02 AM 62.6 °F 60.8 °F 94% 29.78 in 4.0 mi North 6.9 mph - 0.01 in Rain Rain
7:18 AM 62.6 °F 60.8 °F 94% 29.78 in 5.0 mi NNE 10.4 mph - 0.04 in Rain Rain
7:31 AM 62.6 °F 60.8 °F 94% 29.78 in 7.0 mi North 6.9 mph - 0.06 in Rain Light Rain
7:54 AM 62.1 °F 60.1 °F 93% 29.78 in 10.0 mi NNE 11.5 mph - 0.06 in Rain Light Rain
8:01 AM 62.6 °F 60.8 °F 94% 29.79 in 10.0 mi North 8.1 mph - 0.00 in Rain Light Rain
8:28 AM 62.6 °F 60.8 °F 94% 29.79 in 10.0 mi North 12.7 mph - 0.00 in Rain Light Rain
8:54 AM 62.1 °F 60.1 °F 93% 29.80 in 9.0 mi North 13.8 mph - 0.00 in Rain Light Rain
9:12 AM 62.6 °F 59.0 °F 88% 29.81 in 10.0 mi North 12.7 mph 20.7 mph 0.00 in Rain Light Rain
9:54 AM 64.0 °F 60.1 °F 87% 29.81 in 10.0 mi North 15.0 mph 21.9 mph 0.00 in   Overcast
10:18 AM 64.4 °F 59.0 °F 83% 29.83 in 10.0 mi North 11.5 mph - N/A   Overcast
10:54 AM 64.0 °F 59.0 °F 84% 29.83 in 10.0 mi North 13.8 mph - N/A   Overcast
11:23 AM 64.4 °F 59.0 °F 83% 29.84 in 10.0 mi NNE 13.8 mph 23.0 mph N/A   Overcast
11:54 AM 66.9 °F 57.9 °F 73% 29.84 in 10.0 mi North 20.7 mph 26.5 mph N/A   Overcast
12:07 PM 66.2 °F 57.2 °F 73% 29.85 in 10.0 mi North 18.4 mph 26.5 mph N/A   Overcast
12:54 PM 64.9 °F 55.9 °F 73% 29.85 in 10.0 mi North 19.6 mph 26.5 mph 0.00 in   Overcast
1:08 PM 66.2 °F 55.4 °F 68% 29.87 in 10.0 mi NNE 24.2 mph 32.2 mph N/A   Overcast
1:54 PM 64.9 °F 55.0 °F 70% 29.88 in 10.0 mi NNE 24.2 mph 31.1 mph N/A   Overcast
2:54 PM 69.1 °F 55.9 °F 63% 29.87 in 10.0 mi NNE 21.9 mph 27.6 mph 0.00 in   Mostly Cloudy
3:54 PM 70.0 °F 55.0 °F 59% 29.87 in 10.0 mi NNE 17.3 mph 24.2 mph N/A   Overcast
4:54 PM 71.1 °F 57.0 °F 61% 29.88 in 10.0 mi NNE 13.8 mph 21.9 mph N/A   Mostly Cloudy
5:54 PM 66.0 °F 57.0 °F 73% 29.90 in 10.0 mi NNE 13.8 mph - 0.01 in   Overcast
6:54 PM 66.0 °F 55.9 °F 70% 29.90 in 10.0 mi NNE 8.1 mph - N/A   Overcast
7:54 PM 64.9 °F 55.9 °F 73% 29.91 in 10.0 mi NNE 6.9 mph - N/A   Clear
8:54 PM 64.0 °F 57.0 °F 78% 29.93 in 10.0 mi North 8.1 mph - N/A   Clear
9:54 PM 62.1 °F 57.0 °F 84% 29.95 in 10.0 mi North 5.8 mph - N/A   Clear
10:54 PM 63.0 °F 55.9 °F 78% 29.96 in 10.0 mi North 9.2 mph - N/A   Clear
11:54 PM 61.0 °F 53.1 °F 75% 29.97 in 10.0 mi NNE 9.2 mph - N/A   Clear